This demonstration page uses our WeatherBlox Daily Observations layout. Learn more.

Hourly Observations for January 20, 2019

Temp ( °F °C ) Dew Point ( °F °C ) Humidity (%) Winds ( mph kmh ) Pressure ( in mb ) Visibility ( mi km ) Precip ( " mm )
12:15 am 00:15 Clear 24 -4.7 18 -8 78 78 S 10 17 30.24 1024 10 16.09344 0 0
12:35 am 00:35 Clear 23 -4.8 18 -7.7 80 80 S 9 15 30.27 1025 10 16.09344 0 0
12:55 am 00:55 Clear 23 -4.8 18 -8 79 79 SSW 6 9 30.27 1025 10 16.09344 0 0
1:15 am 01:15 Clear 23 -5.1 17 -8.1 80 80 S 6 9 30.24 1024 10 16.09344 0 0
1:35 am 01:35 Clear 22 -5.5 17 -8.1 82 82 SSW 8 13 30.27 1025 10 16.09344 0 0
1:55 am 01:55 Clear 22 -5.6 17 -8.1 83 83 S 5 7 30.24 1024 10 16.09344 0 0
2:15 am 02:15 Clear 22 -5.6 18 -8 83 83 SW 5 7 30.24 1024 10 16.09344 0 0
2:35 am 02:35 Clear 22 -5.6 17 -8.1 83 83 S 5 7 30.21 1023 10 16.09344 0 0
2:55 am 02:55 Clear 21 -6.2 17 -8.5 84 84 S 3 6 30.21 1023 10 16.09344 0 0
3:15 am 03:15 Clear 20 -6.5 17 -8.5 86 86 Calm 30.21 1023 10 16.09344 0 0
3:35 am 03:35 Clear 20 -6.9 16 -8.7 87 87 Calm 30.21 1023 10 16.09344 0 0
3:55 am 03:55 Clear 21 -6.2 18 -8 87 87 Calm 30.21 1023 10 16.09344 0 0
4:15 am 04:15 Clear 22 -5.5 19 -7.4 87 87 SSW 3 6 30.21 1023 10 16.09344 0 0
4:35 am 04:35 Clear 22 -5.5 19 -7.5 86 86 Calm 30.21 1023 10 16.09344 0 0
4:55 am 04:55 Clear 22 -5.5 19 -7.5 86 86 Calm 30.21 1023 10 16.09344 0 0
5:15 am 05:15 Clear 21 -6.1 18 -8 87 87 Calm 30.21 1023 10 16.09344 0 0
5:35 am 05:35 Clear 21 -6.2 18 -8 87 87 WSW 3 6 30.21 1023 10 16.09344 0 0
5:55 am 05:55 Clear 20 -6.7 17 -8.5 87 87 Calm 30.21 1023 10 16.09344 0 0
6:15 am 06:15 Clear 20 -6.9 17 -8.6 88 88 W 5 7 30.21 1023 10 16.09344 0 0
6:35 am 06:35 Clear 21 -6 18 -7.8 87 87 Calm 30.21 1023 10 16.09344 0 0
6:55 am 06:55 Clear 23 -5.1 19 -7 87 87 W 5 7 30.21 1023 10 16.09344 0 0
7:15 am 07:15 Clear 24 -4.5 20 -6.5 86 86 WNW 5 7 30.18 1022 10 16.09344 0 0
7:35 am 07:35 Clear 24 -4.2 21 -6.2 86 86 W 3 6 30.18 1022 10 16.09344 0 0
7:55 am 07:55 Clear 25 -4 21 -6 86 86 W 3 6 30.18 1022 10 16.09344 0 0
8:15 am 08:15 Sunny 26 -3.5 22 -5.6 86 86 NW 6 9 30.18 1022 10 16.09344 0 0
8:35 am 08:35 Partly Cloudy 26 -3.2 22 -5.3 86 86 NNW 7 11 30.18 1022 10 16.09344 0 0
8:55 am 08:55 Partly Cloudy 27 -3 23 -5.2 85 85 NW 7 11 30.18 1022 10 16.09344 0 0
9:15 am 09:15 Mostly Cloudy 28 -2 24 -4.5 83 83 WNW 7 11 30.18 1022 10 16.09344 0 0
9:35 am 09:35 Cloudy 30 -1.3 25 -3.7 84 84 NW 5 7 30.15 1021 10 16.09344 0 0
9:55 am 09:55 Mostly Cloudy 31 -0.5 26 -3.4 81 81 WNW 7 11 30.15 1021 10 16.09344 0 0
10:15 am 10:15 Partly Cloudy 33 0.3 27 -2.7 81 81 NW 8 13 30.15 1021 10 16.09344 0 0
10:35 am 10:35 Sunny 35 1.7 29 -1.7 78 78 NW 9 15 30.12 1020 10 16.09344 0 0
10:55 am 10:55 Sunny 37 2.5 29 -1.4 76 76 WNW 7 11 30.12 1020 10 16.09344 0 0
11:15 am 11:15 Sunny 38 3.1 30 -1 75 75 WNW 8 13 30.12 1020 10 16.09344 0 0
11:35 am 11:35 Sunny 38 3.4 30 -1 73 73 WNW 7 11 30.12 1020 10 16.09344 0 0
11:55 am 11:55 Sunny 40 4.4 31 -0.5 71 71 NW 7 11 30.09 1019 10 16.09344 0 0
12:15 pm 12:15 Sunny 41 4.8 32 -0.1 71 71 WNW 8 13 30.12 1020 10 16.09344 0 0
12:35 pm 12:35 Sunny 42 5.5 32 0 68 68 NW 6 9 30.09 1019 10 16.09344 0 0
12:55 pm 12:55 Sunny 44 6.8 33 0.6 65 65 NW 6 9 30.09 1019 10 16.09344 0 0
1:15 pm 13:15 Partly Cloudy 44 6.8 33 0.7 65 65 NNW 5 7 30.09 1019 10 16.09344 0 0
1:35 pm 13:35 Mostly Cloudy 47 8.1 34 1.3 63 63 N 3 6 30.06 1018 10 16.09344 0 0
1:55 pm 13:55 Partly Cloudy 47 8.5 33 0.7 58 58 NE 8 13 30.06 1018 10 16.09344 0 0
2:15 pm 14:15 Sunny 48 8.8 34 0.9 58 58 ENE 9 15 30.06 1018 10 16.09344 0 0
2:35 pm 14:35 Sunny 47 8.3 34 1 60 60 NE 13 20 30.06 1018 10 16.09344 0 0
2:55 pm 14:55 Partly Cloudy 46 7.6 34 1 63 63 ENE 14 22 30.06 1018 10 16.09344 0 0
3:15 pm 15:15 Mostly Cloudy 42 5.3 32 0 69 69 ENE 16 26 30.09 1019 10 16.09344 0 0
3:35 pm 15:35 Cloudy 39 3.9 30 -1 71 71 ENE 15 24 30.12 1020 10 16.09344 0 0
3:55 pm 15:55 Cloudy 36 2.2 29 -1.8 75 75 ENE 15 24 30.12 1020 10 16.09344 0 0
4:15 pm 16:15 Cloudy 34 1.1 28 -2.5 77 77 ENE 20 31 30.12 1020 10 16.09344 0 0
4:35 pm 16:35 Cloudy 34 1 27 -2.7 77 77 E 14 22 30.18 1022 10 16.09344 0 0
4:55 pm 16:55 Cloudy 33 0.3 26 -3.5 76 76 E 13 20 30.18 1022 10 16.09344 0 0
5:15 pm 17:15 Cloudy 32 -0.2 25 -3.9 76 76 E 17 28 30.18 1022 10 16.09344 0 0
5:35 pm 17:35 Mostly Cloudy 29 -1.7 24 -4.6 81 81 E 13 20 30.18 1022 10 16.09344 0 0
5:55 pm 17:55 Mostly Cloudy 28 -2.2 24 -4.7 83 83 E 16 26 30.21 1023 10 16.09344 0 0
6:15 pm 18:15 Cloudy 28 -2.5 24 -4.7 85 85 E 12 19 30.21 1023 10 16.09344 0 0
6:35 pm 18:35 Cloudy 27 -2.6 23 -4.8 85 85 ESE 15 24 30.21 1023 10 16.09344 0 0
6:55 pm 18:55 Cloudy 26 -3.2 22 -5.4 85 85 E 13 20 30.21 1023 10 16.09344 0 0
7:15 pm 19:15 Cloudy 26 -3.6 22 -5.6 86 86 ESE 15 24 30.24 1024 10 16.09344 0 0
7:35 pm 19:35 Cloudy 25 -4 21 -6 86 86 ESE 15 24 30.24 1024 10 16.09344 0 0
7:55 pm 19:55 Cloudy 24 -4.6 20 -6.4 87 87 SE 14 22 30.27 1025 10 16.09344 0 0
8:15 pm 20:15 Cloudy 22 -5.3 19 -7.1 87 87 SE 14 22 30.27 1025 10 16.09344 0 0
8:35 pm 20:35 Cloudy 22 -5.5 19 -7.2 88 88 ESE 13 20 30.27 1025 10 16.09344 0 0
8:55 pm 20:55 Cloudy 22 -5.6 19 -7.3 88 88 ESE 9 15 30.24 1024 10 16.09344 0 0
9:15 pm 21:15 Cloudy 21 -6 18 -7.7 88 88 ESE 12 19 30.24 1024 7 11.265408 0 0
9:35 pm 21:35 Cloudy 21 -6.3 17 -8.1 87 87 ESE 10 17 30.24 1024 10 16.09344 0 0
9:55 pm 21:55 Cloudy 20 -6.4 18 -8 89 89 ESE 10 17 30.21 1023 10 16.09344 0 0
10:15 pm 22:15 Cloudy 20 -6.6 17 -8.2 89 89 ESE 12 19 30.21 1023 10 16.09344 0 0
10:35 pm 22:35 Cloudy 20 -6.7 17 -8.4 88 88 ESE 12 19 30.21 1023 10 16.09344 0 0
10:55 pm 22:55 Cloudy 19 -7.1 16 -8.8 88 88 SE 15 24 30.21 1023 10 16.09344 0 0
11:15 pm 23:15 Cloudy 18 -7.8 15 -9.4 88 88 SE 14 22 30.24 1024 10 16.09344 0 0
11:35 pm 23:35 Cloudy 17 -8.1 15 -9.5 90 90 SE 15 24 30.24 1024 7 11.265408 0 0
11:55 pm 23:55 Cloudy 17 -8.1 15 -9.3 91 91 ESE 9 15 30.24 1024 7 11.265408 0 0

Powered by AerisWeather